map of MAA home
MAA - Airport
Location
City:  Chennai/Madras, Tamil Nadu, India
Name:Meenambakkam
ICAO:VOMM
IATA:MAA

Details
Type:Airport (Aerodrome, Airfield)
Use:Public/Civil, International (customs port of entry)
Latitude:1259'40"N (12.994414)
Longitude:8010'50"E (80.180517)
Datum:WGS 1984
Elevation:52 ft (16 m)
Variation:1.23W (WMM2015 magnetic declination)
0.07 annual change
Runways:2
Longest:12001 × 148 ft (3658 × 45 m), paved

Time
Time Zone:UTC+5:30
Local Time:

Weather
METAR:VOMM 241000Z 29006KT 8000 SCT020 38/22 Q1002 NOSIG
TAF:VOMM 240500Z 2406/2512 25010KT 6000 FEW020 SCT100
BECMG 2408/2409 25010G20KT
BECMG 2410/2411 16010KT
TEMPO 2412/2418 4000 -TSRA/RA FEW020 FEW025TCU/CB SCT100
BECMG 2418/2419 26010KT
BECMG 2509/2510 16010KT

Related Locations
Nearby:
Farthest:SEII: 11410 mi / 18362 km
Puerto Villamil [General Villamil], Isabela Island, W, EC

Find:

   beyond  
but within

Other Information
Maps:
NOTAMs:
Links:
Sources:

  
flag of India   

Sectional Chart

Flight Planning
at skyvector.com

Satellite Image

Google Maps Satellite view

 

Copyright © 2004-2017 Karl L. Swartz. All rights reserved.
The Great Circle Mapper name and logo are trademarks of the Great Circle Mapper.
All other trademarks mentioned herein belong to their respective owners.
Please see credits for attibutions and further copyright information.

  Follow gcmap on Facebook Follow gcmap on Twitter Follow gcmap on Google+ GCmap on LinkedIn

hCard Microformat

Geo Microformat